• Join FlightAware (Why Join?)
  • Login
  • US Flag GB Flag 
13:02 EDT


 

Airport Tracker/Info


-or-


 

Live Flight TrackerFlight Track Log ✈ CPT1940 ✈ 30-Oct-2013 ✈ KRKS - KCPR

Flight Track Log - Related Links

Times and Time Zones

All times are in EDT time to prevent confusion due to time zone crossing. See the CPT1940 flight status page for this flight to view local times or setup timezone preferences in your user account.

Time Position Orientation Groundspeed Altitude Reporting Facility
EDT Latitude Longitude Course Direction KTS MPH feet Rate Location/Type
14:28 41.6008 -109.0789 55° Northeast 123 142 7,400  Level Salt Lake Center
14:29 41.6300 -109.0400 45° Northeast 146 168 8,600 1,080 Climbing Salt Lake Center
14:30 41.6525 -108.9992 54° Northeast 145 167 9,700 960 Climbing Salt Lake Center
14:31 41.6747 -108.9569 55° Northeast 144 166 10,700 1,020 Climbing Salt Lake Center
14:32 41.7661 -108.7374 55° Northeast  Level Estimated
14:32 41.6989 -108.9069 57° Northeast 144 166 11,900  Level Salt Lake Center
14:33 41.7905 -108.6902 55° Northeast  Level FlightAware Approximate
14:33 41.7200 -108.8653 56° Northeast 142 163 12,700  Level Salt Lake Center
14:34 41.7469 -108.8144 55° Northeast 145 167 13,000 120 Climbing Salt Lake Center
14:35 41.7739 -108.7636 55° Northeast 160 184 13,000  Level Salt Lake Center
14:36 41.8044 -108.7028 56° Northeast 171 197 13,000  Level Salt Lake Center
14:37 41.8308 -108.6514 55° Northeast 173 199 13,000  Level Salt Lake Center
14:38 41.8614 -108.5922 55° Northeast 174 200 13,000  Level Salt Lake Center
14:39 41.8878 -108.5408 55° Northeast 174 200 13,000  Level Salt Lake Center
14:40 41.9181 -108.4817 55° Northeast 173 199 13,000  Level Salt Lake Center
14:41 41.9442 -108.4300 56° Northeast 174 200 13,000  Level Salt Lake Center
14:42 41.9750 -108.3694 56° Northeast 175 201 13,000  Level Salt Lake Center
14:43 42.0014 -108.3183 55° Northeast 174 200 13,000  Level Salt Lake Center
14:44 42.0308 -108.2558 58° Northeast 176 203 13,000  Level Salt Lake Center
14:46 42.0575 -108.2033 56° Northeast 177 204 13,000  Level Salt Lake Center
14:47 42.0847 -108.1519 54° Northeast 176 203 13,000  Level Salt Lake Center
14:48 42.1150 -108.0906 56° Northeast 177 204 13,000  Level Salt Lake Center
14:49 42.1408 -108.0392 56° Northeast 175 201 13,000  Level Salt Lake Center
14:50 42.1708 -107.9794 56° Northeast 173 199 13,000  Level Salt Lake Center
14:51 42.1967 -107.9286 56° Northeast 173 199 13,100  Climbing Salt Lake Center
14:52 42.2261 -107.8678 57° Northeast 173 199 13,100  Level Salt Lake Center
14:53 42.2500 -107.8139 59° Northeast 174 200 13,100  Level Salt Lake Center
14:54 42.2797 -107.7533 56° Northeast 174 200 13,100  Level Salt Lake Center
14:55 42.3061 -107.7011 56° Northeast 175 201 13,100  Level Salt Lake Center
14:56 42.3367 -107.6417 55° Northeast 173 199 13,100  Level Salt Lake Center
14:57 42.3625 -107.5892 56° Northeast 174 200 13,100  Level Denver Center
14:58 42.3878 -107.5372 57° Northeast 173 199 13,100  Level Denver Center
14:59 42.4172 -107.4756 57° Northeast 174 200 13,100  Level Denver Center
15:00 42.4444 -107.4236 55° Northeast 176 203 13,100  Level Denver Center
15:01 42.4700 -107.3725 56° Northeast 173 199 13,100 -60 Level Denver Center
15:02 42.5028 -107.3031 57° Northeast 172 198 13,000 -60 Descending Salt Lake Center
15:03 42.5272 -107.2506 58° Northeast 172 198 13,000  Level Salt Lake Center
15:04 42.5553 -107.1914 57° Northeast 169 194 13,000  Level Salt Lake Center
15:05 42.5803 -107.1411 56° Northeast 168 193 13,000  Level Salt Lake Center
15:06 42.6061 -107.0906 55° Northeast 168 193 13,000  Level Denver Center
15:07 42.6325 -107.0347 57° Northeast 168 193 13,000 -300 Level Denver Center
15:08 42.6433 -106.9725 77° East 182 209 12,400 -780 Descending Denver Center
15:09 42.6481 -106.9003 85° East 188 216 11,400 -540 Descending Denver Center
15:10 42.6536 -106.8347 83° East 188 216 11,300 -120 Descending Denver Center
15:12 42.7023 -106.8004 27° Northeast  Level FlightAware Approximate
15:19 42.8900 -106.4751 61° Northeast  Level FlightAware Approximate
15:20 42.9000 -106.4500 61° Northeast  Level FlightAware Approximate
15:21 42.9080 -106.4644 61° Northeast  Level Estimated
15:22 42.9080 -106.4644 61° Northeast  Level Estimated
15:23 42.9080 -106.4644 61° Northeast  Level Estimated
15:24 42.9080 -106.4644 61° Northeast  Level Estimated
15:25 42.9080 -106.4644 61° Northeast  Level Estimated
15:26 42.9080 -106.4644 61° Northeast  Level Estimated